CCA201 ZULS-VNKT

Flight info

Callsign CCA201
Flight time 1h 7m
Altitude 34100
Route DEP10R IKUBI B345 NONIM/N0458F360 B345 KIMTI KMTI2R
Aircraft A320/M-SDE3FGHIRWY/LB1

Departure

Time 2026-04-16 06:28
Airport Lhasa Gonggar International Airport (ZULS)

Arrival

Time 2026-04-16 07:36
Airport Tribhuvan International Airport (VNKT)
Time Latitude Longitude Altitude Speed Heading
2026-04-16 06:12 29.29383 90.89404 11562 ft 0 kts 183°
2026-04-16 06:20 29.29397 90.89405 11554 ft 3 kts 184°
2026-04-16 06:20 29.29417 90.89407 11556 ft 3 kts 187°
2026-04-16 06:20 29.29437 90.89410 11561 ft 3 kts 190°
2026-04-16 06:21 29.29452 90.89413 11551 ft 1 kts 193°
2026-04-16 06:21 29.29453 90.89414 11551 ft 0 kts 193°
2026-04-16 06:23 29.29447 90.89411 11556 ft 2 kts 199°
2026-04-16 06:23 29.29444 90.89402 11560 ft 1 kts 248°
2026-04-16 06:24 29.29447 90.89387 11564 ft 3 kts 285°
2026-04-16 06:24 29.29465 90.89374 11554 ft 4 kts 340°
2026-04-16 06:24 29.29496 90.89371 11559 ft 5 kts 354°
2026-04-16 06:24 29.29515 90.89336 11561 ft 6 kts 276°
2026-04-16 06:25 29.29514 90.89281 11565 ft 8 kts 267°
2026-04-16 06:25 29.29521 90.89216 11558 ft 9 kts 293°
2026-04-16 06:25 29.29581 90.89195 11558 ft 10 kts 359°
2026-04-16 06:25 29.29657 90.89195 11558 ft 12 kts
2026-04-16 06:26 29.29744 90.89196 11558 ft 9 kts
2026-04-16 06:26 29.29776 90.89250 11559 ft 6 kts 86°
2026-04-16 06:26 29.29778 90.89285 11553 ft 0 kts 88°
2026-04-16 06:27 29.29778 90.89306 11562 ft 10 kts 89°
2026-04-16 06:27 29.29784 90.89634 11562 ft 74 kts 89°
2026-04-16 06:27 29.29796 90.90469 11556 ft 133 kts 89°
2026-04-16 06:28 29.29816 90.91727 11542 ft 181 kts 89°
2026-04-16 06:28 29.29822 90.93266 11879 ft 194 kts 91°
2026-04-16 06:28 29.29773 90.94798 12736 ft 192 kts 92°
2026-04-16 06:28 29.29693 90.96271 13322 ft 178 kts 93°
2026-04-16 06:29 29.29634 90.97668 13548 ft 178 kts 90°
2026-04-16 06:29 29.29623 90.99124 13649 ft 188 kts 90°
2026-04-16 06:29 29.29622 91.00674 13758 ft 201 kts 89°
2026-04-16 06:29 29.29638 91.02341 13868 ft 218 kts 89°
2026-04-16 06:30 29.29660 91.04144 13986 ft 236 kts 89°
2026-04-16 06:30 29.29683 91.06100 14088 ft 257 kts 89°
2026-04-16 06:30 29.29700 91.08243 14223 ft 280 kts 89°
2026-04-16 06:30 29.29712 91.10535 14577 ft 292 kts 90°
2026-04-16 06:31 29.29722 91.12885 15117 ft 297 kts 89°
2026-04-16 06:31 29.29729 91.15241 15721 ft 301 kts 90°
2026-04-16 06:31 29.29736 91.17663 16294 ft 307 kts 90°
2026-04-16 06:31 29.29708 91.20118 16873 ft 310 kts 97°
2026-04-16 06:32 29.28995 91.22438 17416 ft 313 kts 127°
2026-04-16 06:32 29.27364 91.24053 17986 ft 313 kts 158°
2026-04-16 06:32 29.25254 91.24525 18511 ft 311 kts 188°
2026-04-16 06:32 29.23239 91.23728 19015 ft 308 kts 219°
2026-04-16 06:33 29.21875 91.21897 19570 ft 305 kts 248°
2026-04-16 06:33 29.21513 91.19534 20080 ft 305 kts 278°
2026-04-16 06:33 29.22166 91.17236 20612 ft 307 kts 297°
2026-04-16 06:33 29.23261 91.15127 21202 ft 309 kts 301°
2026-04-16 06:34 29.24405 91.13044 21792 ft 310 kts 301°
2026-04-16 06:34 29.25561 91.10942 22340 ft 313 kts 301°
2026-04-16 06:34 29.26661 91.08826 22878 ft 314 kts 296°
2026-04-16 06:34 29.27577 91.06552 23419 ft 315 kts 291°
2026-04-16 06:35 29.28372 91.04205 23879 ft 316 kts 289°
2026-04-16 06:35 29.29124 91.01832 24349 ft 317 kts 289°
2026-04-16 06:35 29.29729 90.99408 24800 ft 318 kts 276°
2026-04-16 06:35 29.29844 90.96826 24939 ft 331 kts 273°
2026-04-16 06:36 29.29931 90.94141 25057 ft 343 kts 273°
2026-04-16 06:36 29.30023 90.91352 25202 ft 356 kts 273°
2026-04-16 06:36 29.30125 90.88465 25314 ft 369 kts 273°
2026-04-16 06:36 29.30235 90.85476 25434 ft 381 kts 273°
2026-04-16 06:37 29.30351 90.82396 25553 ft 393 kts 273°
2026-04-16 06:37 29.30473 90.79229 25673 ft 403 kts 273°
2026-04-16 06:37 29.30600 90.75981 25803 ft 412 kts 274°
2026-04-16 06:37 29.30729 90.72670 25981 ft 419 kts 274°
2026-04-16 06:38 29.30858 90.69321 26306 ft 421 kts 274°
2026-04-16 06:38 29.30987 90.65958 26658 ft 423 kts 274°
2026-04-16 06:38 29.31115 90.62578 27019 ft 425 kts 274°
2026-04-16 06:38 29.31245 90.59186 27399 ft 427 kts 274°
2026-04-16 06:39 29.31372 90.55830 27801 ft 428 kts 274°
2026-04-16 06:39 29.31499 90.52416 28173 ft 429 kts 274°
2026-04-16 06:39 29.31626 90.48989 28536 ft 431 kts 275°
2026-04-16 06:39 29.31749 90.45569 29081 ft 428 kts 274°
2026-04-16 06:40 29.31869 90.42171 29649 ft 425 kts 275°
2026-04-16 06:40 29.31988 90.38795 30188 ft 423 kts 275°
2026-04-16 06:40 29.32105 90.35438 30569 ft 420 kts 275°
2026-04-16 06:40 29.32218 90.32102 31021 ft 417 kts 275°
2026-04-16 06:41 29.32330 90.28806 31540 ft 412 kts 275°
2026-04-16 06:41 29.32443 90.25538 32070 ft 408 kts 276°
2026-04-16 06:41 29.32555 90.22292 32636 ft 404 kts 276°
2026-04-16 06:41 29.32665 90.19085 33182 ft 401 kts 276°
2026-04-16 06:42 29.32774 90.15904 33688 ft 398 kts 276°
2026-04-16 06:42 29.32881 90.12784 34051 ft 396 kts 276°
2026-04-16 06:42 29.33098 90.06455 34137 ft 399 kts 276°
2026-04-16 06:43 29.33315 90.00087 34139 ft 400 kts 276°
2026-04-16 06:43 29.33518 89.93696 34123 ft 401 kts 276°
2026-04-16 06:44 29.33720 89.87300 34130 ft 402 kts 276°
2026-04-16 06:44 29.33922 89.80889 34127 ft 403 kts 276°
2026-04-16 06:45 29.34129 89.74468 34134 ft 404 kts 276°
2026-04-16 06:45 29.34295 89.69130 34120 ft 403 kts 276°
2026-04-16 06:46 29.34518 89.61670 34123 ft 403 kts 276°
2026-04-16 06:46 29.34704 89.55247 34124 ft 403 kts 276°
2026-04-16 06:47 29.34863 89.49869 34099 ft 403 kts 276°
2026-04-16 06:47 29.35047 89.43489 34100 ft 403 kts 276°
2026-04-16 06:48 29.35229 89.37064 34081 ft 403 kts 276°
2026-04-16 06:48 29.35144 89.30629 34082 ft 409 kts 265°
2026-04-16 06:49 29.33047 89.24466 34077 ft 428 kts 243°
2026-04-16 06:49 29.29083 89.19224 34053 ft 438 kts 234°
2026-04-16 06:50 29.24917 89.14114 34055 ft 439 kts 234°
2026-04-16 06:50 29.20755 89.08988 34037 ft 439 kts 234°
2026-04-16 06:51 29.16596 89.03864 34037 ft 439 kts 234°
2026-04-16 06:51 29.12428 88.98743 34051 ft 439 kts 234°
2026-04-16 06:52 29.08289 88.93669 34061 ft 439 kts 234°
2026-04-16 06:52 29.04111 88.88563 34067 ft 439 kts 234°
2026-04-16 06:53 28.99940 88.83459 34082 ft 439 kts 234°
2026-04-16 06:53 28.95773 88.78367 34090 ft 439 kts 234°
2026-04-16 06:54 28.91599 88.73269 34061 ft 440 kts 234°
2026-04-16 06:54 28.87410 88.68160 34099 ft 441 kts 234°
2026-04-16 06:55 28.83207 88.63047 34106 ft 442 kts 234°
2026-04-16 06:55 28.78997 88.57923 34113 ft 442 kts 234°
2026-04-16 06:56 28.74791 88.52805 34140 ft 442 kts 234°
2026-04-16 06:56 28.70597 88.47727 34140 ft 442 kts 234°
2026-04-16 06:57 28.66375 88.42622 34135 ft 442 kts 234°
2026-04-16 06:57 28.62156 88.37521 34135 ft 442 kts 233°
2026-04-16 06:58 28.57938 88.32427 34139 ft 442 kts 233°
2026-04-16 06:58 28.53723 88.27335 34130 ft 441 kts 233°
2026-04-16 06:59 28.49517 88.22251 34139 ft 442 kts 233°
2026-04-16 06:59 28.45299 88.17168 34140 ft 442 kts 233°
2026-04-16 07:00 28.41075 88.12096 34151 ft 442 kts 233°
2026-04-16 07:01 28.34765 88.04520 34145 ft 442 kts 233°
2026-04-16 07:01 28.30530 87.99458 34159 ft 442 kts 233°
2026-04-16 07:02 28.26297 87.94390 34207 ft 442 kts 233°
2026-04-16 07:02 28.22072 87.89329 34206 ft 442 kts 233°
2026-04-16 07:03 28.17834 87.84278 34225 ft 442 kts 233°
2026-04-16 07:03 28.13592 87.79230 34227 ft 442 kts 233°
2026-04-16 07:04 28.09356 87.74176 34225 ft 442 kts 233°
2026-04-16 07:04 28.05115 87.69132 34238 ft 442 kts 232°
2026-04-16 07:05 28.00870 87.64094 34244 ft 443 kts 232°
2026-04-16 07:05 27.96612 87.59058 34251 ft 443 kts 232°
2026-04-16 07:06 27.92354 87.54010 34301 ft 444 kts 232°
2026-04-16 07:06 27.88126 87.48995 34304 ft 444 kts 232°
2026-04-16 07:07 27.83652 87.44162 34306 ft 451 kts 221°
2026-04-16 07:07 27.78001 87.40871 34312 ft 462 kts 208°
2026-04-16 07:08 27.72039 87.38131 34293 ft 462 kts 208°
2026-04-16 07:08 27.66084 87.35369 34284 ft 463 kts 208°
2026-04-16 07:09 27.60125 87.32613 34302 ft 463 kts 207°
2026-04-16 07:09 27.54158 87.29862 34264 ft 464 kts 208°
2026-04-16 07:10 27.48164 87.27111 34273 ft 465 kts 208°
2026-04-16 07:10 27.42170 87.24366 34218 ft 464 kts 208°
2026-04-16 07:10 27.39313 87.22761 34219 ft 454 kts 220°
2026-04-16 07:11 27.36945 87.20503 34214 ft 441 kts 234°
2026-04-16 07:11 27.35213 87.17764 34218 ft 431 kts 247°
2026-04-16 07:11 27.34109 87.14675 34215 ft 423 kts 259°
2026-04-16 07:11 27.33666 87.11432 34212 ft 417 kts 271°
2026-04-16 07:12 27.33886 87.08206 34219 ft 413 kts 283°
2026-04-16 07:12 27.35120 87.01910 34220 ft 413 kts 284°
2026-04-16 07:13 27.36358 86.95597 34218 ft 413 kts 284°
2026-04-16 07:13 27.37595 86.89284 34235 ft 412 kts 283°
2026-04-16 07:14 27.38822 86.82987 34242 ft 411 kts 283°
2026-04-16 07:14 27.40036 86.76745 34243 ft 411 kts 284°
2026-04-16 07:15 27.41258 86.70462 34250 ft 411 kts 283°
2026-04-16 07:15 27.42481 86.64185 34227 ft 410 kts 284°
2026-04-16 07:16 27.43696 86.57915 34286 ft 410 kts 283°
2026-04-16 07:16 27.44900 86.51657 34265 ft 409 kts 283°
2026-04-16 07:17 27.46103 86.45401 34236 ft 409 kts 283°
2026-04-16 07:17 27.47303 86.39137 34240 ft 409 kts 283°
2026-04-16 07:18 27.48492 86.32863 34215 ft 410 kts 281°
2026-04-16 07:18 27.48345 86.26445 34207 ft 417 kts 260°
2026-04-16 07:18 27.47396 86.23346 34210 ft 423 kts 249°
2026-04-16 07:19 27.45896 86.20462 34206 ft 429 kts 242°
2026-04-16 07:19 27.42554 86.14893 34171 ft 430 kts 242°
2026-04-16 07:20 27.39223 86.09346 34127 ft 431 kts 242°
2026-04-16 07:20 27.37543 86.06547 33933 ft 432 kts 242°
2026-04-16 07:20 27.35859 86.03744 33664 ft 433 kts 242°
2026-04-16 07:20 27.34168 86.00934 32794 ft 436 kts 242°
2026-04-16 07:21 27.32465 85.98103 31868 ft 439 kts 241°
2026-04-16 07:21 27.30743 85.95248 30979 ft 441 kts 241°
2026-04-16 07:21 27.29019 85.92393 29978 ft 443 kts 241°
2026-04-16 07:21 27.27290 85.89530 28805 ft 440 kts 241°
2026-04-16 07:22 27.25570 85.86687 27699 ft 437 kts 241°
2026-04-16 07:22 27.23864 85.83863 26940 ft 435 kts 240°
2026-04-16 07:22 27.22167 85.81057 26201 ft 431 kts 240°
2026-04-16 07:22 27.20487 85.78276 25461 ft 429 kts 240°
2026-04-16 07:23 27.18810 85.75503 24719 ft 427 kts 240°
2026-04-16 07:23 27.17142 85.72750 23975 ft 426 kts 239°
2026-04-16 07:23 27.15475 85.70000 23150 ft 425 kts 239°
2026-04-16 07:23 27.13871 85.67237 22406 ft 419 kts 244°
2026-04-16 07:24 27.12677 85.64299 21703 ft 410 kts 253°
2026-04-16 07:24 27.11979 85.61270 21021 ft 403 kts 263°
2026-04-16 07:24 27.11745 85.58165 20349 ft 397 kts 271°
2026-04-16 07:24 27.11760 85.55075 19683 ft 395 kts 271°
2026-04-16 07:25 27.11770 85.52001 19055 ft 393 kts 271°
2026-04-16 07:25 27.11775 85.48945 18436 ft 391 kts 271°
2026-04-16 07:25 27.11776 85.45894 17782 ft 390 kts 271°
2026-04-16 07:25 27.11776 85.42876 17399 ft 381 kts 271°
2026-04-16 07:26 27.11773 85.39960 17255 ft 366 kts 271°
2026-04-16 07:26 27.11771 85.37164 17120 ft 351 kts 271°
2026-04-16 07:26 27.12054 85.34513 16954 ft 337 kts 285°
2026-04-16 07:26 27.12944 85.32120 16668 ft 330 kts 300°
2026-04-16 07:27 27.14364 85.30097 16216 ft 332 kts 315°
2026-04-16 07:27 27.16219 85.28527 15672 ft 336 kts 324°
2026-04-16 07:27 27.18162 85.27077 15232 ft 333 kts 324°
2026-04-16 07:27 27.20102 85.25625 14706 ft 334 kts 324°
2026-04-16 07:28 27.22020 85.24186 14338 ft 330 kts 324°
2026-04-16 07:28 27.23921 85.22754 13900 ft 328 kts 324°
2026-04-16 07:28 27.25817 85.21321 13445 ft 327 kts 324°
2026-04-16 07:28 27.27683 85.19997 13310 ft 317 kts 332°
2026-04-16 07:29 27.29742 85.19221 13154 ft 310 kts 348°
2026-04-16 07:29 27.31887 85.19131 12842 ft 310 kts
2026-04-16 07:29 27.33977 85.19740 12489 ft 312 kts 19°
2026-04-16 07:29 27.35981 85.20664 12075 ft 312 kts 20°
2026-04-16 07:30 27.38014 85.21595 11256 ft 317 kts 20°
2026-04-16 07:30 27.40059 85.22525 10479 ft 317 kts 21°
2026-04-16 07:30 27.42108 85.23455 9716 ft 317 kts 21°
2026-04-16 07:30 27.44105 85.24359 9417 ft 299 kts 19°
2026-04-16 07:31 27.46073 85.24857 9028 ft 285 kts
2026-04-16 07:31 27.47998 85.24579 8623 ft 276 kts 343°
2026-04-16 07:31 27.49812 85.24020 8286 ft 264 kts 343°
2026-04-16 07:31 27.51578 85.23636 7994 ft 255 kts 356°
2026-04-16 07:32 27.53320 85.23769 7690 ft 248 kts
2026-04-16 07:32 27.54926 85.24386 7398 ft 241 kts 25°
2026-04-16 07:32 27.56310 85.25406 7118 ft 235 kts 39°
2026-04-16 07:32 27.57535 85.26573 6864 ft 223 kts 39°
2026-04-16 07:33 27.58604 85.27688 6583 ft 203 kts 47°
2026-04-16 07:33 27.59415 85.28912 6344 ft 188 kts 57°
2026-04-16 07:33 27.60083 85.30093 6111 ft 171 kts 52°
2026-04-16 07:33 27.60852 85.31095 5900 ft 167 kts 43°
2026-04-16 07:34 27.61714 85.31946 5725 ft 164 kts 34°
2026-04-16 07:34 27.62329 85.32427 5596 ft 161 kts 29°
2026-04-16 07:34 27.63309 85.33021 5394 ft 158 kts 21°
2026-04-16 07:34 27.64326 85.33487 5170 ft 158 kts 20°
2026-04-16 07:35 27.65349 85.33947 4980 ft 157 kts 20°
2026-04-16 07:35 27.66363 85.34415 4752 ft 158 kts 22°
2026-04-16 07:35 27.67374 85.34879 4585 ft 156 kts 18°
2026-04-16 07:35 27.68388 85.35333 4453 ft 157 kts 21°
2026-04-16 07:36 27.69363 85.35779 4394 ft 126 kts 23°
2026-04-16 07:36 27.69894 85.36021 4395 ft 40 kts 22°
2026-04-16 07:36 27.70088 85.36112 4396 ft 14 kts 21°
2026-04-16 07:36 27.70175 85.36114 4398 ft 3 kts 335°
2026-04-16 07:37 27.70190 85.36100 4398 ft 3 kts 312°
2026-04-16 07:37 27.70199 85.36065 4398 ft 6 kts 269°
2026-04-16 07:37 27.70167 85.36026 4398 ft 8 kts 204°
2026-04-16 07:37 27.70103 85.35998 4397 ft 11 kts 202°
2026-04-16 07:38 27.70021 85.35960 4397 ft 14 kts 202°
2026-04-16 07:38 27.69971 85.35936 4397 ft 3 kts 207°
2026-04-16 07:38 27.69959 85.35915 4397 ft 3 kts 260°
2026-04-16 07:38 27.69969 85.35887 4398 ft 4 kts 293°
2026-04-16 07:39 27.69983 85.35849 4398 ft 6 kts 292°
2026-04-16 07:39 27.69989 85.35835 4398 ft 0 kts 292°